Regional Weather Roundup
Issued by NWS

Home | Current Version | Previous Version | Graphics & Text | Print | Product List | Glossary On
Versions: 1 2 3 4 5 6 7 8 9 10 11 12 13 14 15 16 17 18 19 20 21 22 23 24 25 26 27 28 29 30 31 32 33 34 35 36 37 38 39 40 41 42 43 44 45 46 47 48 49 50
000
ASUS43 KIND 190509
RWRIN

WEATHER ROUNDUP FOR INDIANA
NATIONAL WEATHER SERVICE INDIANAPOLIS IN
100 AM EDT SUN APR 19 2015

NOTE: "FAIR" INDICATES FEW OR NO CLOUDS BELOW 12,000 FEET WITH NO
SIGNIFICANT WEATHER AND/OR OBSTRUCTIONS TO VISIBILITY.

* - STATION DOES NOT REPORT WEATHER SUCH AS PRECIPITATION OR FOG.

+ - STATION NOT QUALITY CONTROLLED BY THE NATIONAL WEATHER SERVICE.
    USE DATA WITH CAUTION...ESPECIALLY DEWPOINT AND RELATIVE
    HUMIDITY OBSERVATIONS.

INZ001>003-010>013-019-020-190600-
NORTHWEST INDIANA

CITY           SKY/WX    TMP DP  RH WIND       PRES   REMARKS
GARY /AIRPORT/ CLOUDY    47  38  70 CALM      29.98F
KNOX *+        CLOUDY    59 N/A N/A E13       29.98F
MICHIGAN CITY+ MOCLDY    59  14  17 E5        30.00F
MONTICELLO +   CLOUDY    59  39  48 E12G21    29.96F
RENSSELAER +   CLOUDY    57  37  47 E14       29.96F
VALPARAISO     CLOUDY    57  19  22 E13       29.99F

$$

LMZ046-743>745-190600-
SOUTHERN LAKE MICHIGAN

STATION/POSITION TIME  TEMP WIND        PRES
                       AIR  DIR/SP/G
                 (UTC) (F)  (DEG/KT/KT) (MB)
BURNS HARBOR     0500   61  110/ 18/ 26 1015.6S
MICHIGAN CITY    0500        80/ 16/ 21   N/A
4NW MICH CITY    0500   56  120/ 14/ 17   N/A

$$

INZ004-005-014>016-021>024-190600-
NORTH CENTRAL INDIANA

CITY           SKY/WX    TMP DP  RH WIND       PRES   REMARKS
GOSHEN         MOCLDY    54  27  35 E13       30.02F
LOGANSPORT +   CLOUDY    55  36  47 E15       29.99S
ROCHESTER +    CLOUDY    57  30  35 E12       30.01F
SOUTH BEND     MOCLDY    59  21  23 E18G28    30.02F
WARSAW +       CLOUDY    54  28  37 E10       30.02F

$$

INZ006>009-017-018-025>027-190600-
NORTHEAST INDIANA

CITY           SKY/WX    TMP DP  RH WIND       PRES   REMARKS
ANGOLA *+      CLEAR     54  25  32 E12       30.05F
AUBURN +       CLOUDY    52  30  43 E13       30.06F
FORT WAYNE     MOCLDY    53  35  50 E14       30.03F
HUNTINGTON +   MOCLDY    53  30  41 E8        30.02S

$$

INZ028-029-035-036-043>045-051>053-190600-
WEST CENTRAL INDIANA

CITY           SKY/WX    TMP DP  RH WIND       PRES   REMARKS
CRAWFORDSVL +  PTCLDY    60  43  54 E10       29.92F
GREENCASTLE +  CLOUDY    61  45  55 E6        29.92F
LAFAYETTE      MOCLDY    60  47  61 NE13      29.94F
TERRE HAUTE    CLOUDY    64  48  56 E8        29.90F

$$

INZ030>032-037>040-046>048-054>057-064-065-190600-
CENTRAL INDIANA

CITY           SKY/WX    TMP DP  RH WIND       PRES   REMARKS
CP ATTERBURY + CLOUDY    63  46  55 CALM      29.93F
FISHERS *+     CLOUDY    61  52  72 NE7       29.95F
FRANKFORT +    MOCLDY    60  46  61 NE14      29.98S
GREENWOOD *+   CLOUDY    64  45  48 E7        29.94F
INDIANAPOLIS   CLOUDY    67  46  47 NE12      29.91F
-EAGLE CREEK   MOCLDY    65  48  54 NE9       29.93F
KOKOMO *+      CLOUDY    55  39  54 E16       29.98F
MARION +       MOCLDY    56  36  47 E14       30.00F
MT COMFORT *+  CLOUDY    61  45  55 E9        29.96F
SHELBYVILLE    CLOUDY    65  49  56 E13       29.93F
ZIONSVILLE +   MOCLDY    62  49  62 NE9       29.96F

$$

INZ033-034-041-042-049-050-058-059-190600-
EAST CENTRAL INDIANA

CITY           SKY/WX    TMP DP  RH WIND       PRES   REMARKS
MUNCIE         MOCLDY    57  41  55 E10       29.99F

$$

INZ060-061-067>069-081>083-085>088-190600-
SOUTHWEST INDIANA

CITY           SKY/WX    TMP DP  RH WIND       PRES   REMARKS
EVANSVILLE     MOCLDY    68  49  50 E6        29.85F
HUNTINGBURG *+ CLOUDY    68  46  45 E9        29.87F
WASHINGTON +   MOCLDY    62  48  58 E5        29.87F

$$

INZ062-063-066-070>080-084-089>092-190600-
SOUTH CENTRAL AND SOUTHEAST INDIANA

CITY           SKY/WX    TMP DP  RH WIND       PRES   REMARKS
BEDFORD +      MOCLDY    64  45  48 E5        29.90F
BLOOMINGTON    CLOUDY    63  47  55 E5        29.91F
MADISON *+     MOCLDY    64  41  42 E5        29.93F
NORTH VERNON + MOCLDY    64  46  52 E7        29.93F

$$




USA.gov is the U.S. government's official web portal to all federal, state and local government web resources and services.